Location: Newark
(25.0000°N, 73.5000°E)
Time: 06:09:39
(UTC+00:00)

NOAA 15 - Pass Details

Date: 25 February 2020
Orbit: 797 x 813 km, 98.7° (Epoch: 07 April)

Event Time Altitude Azimuth Distance (km) Brightness Sun altitude
Rises 14:29:21 0° 187° (S) 3,314 7.9 -19.7°
Reaches altitude 10° 14:31:52 10° 196° (SSW) 2,387 7.2 -20.3°
Maximum altitude 14:36:38 35° 261° (W) 1,297 6.3 -21.3°
Drops below altitude 10° 14:41:27 10° 326° (NW) 2,401 7.5 -22.4°
Sets 14:44:00 0° 335° (NNW) 3,335 8.1 -23.0°
